Regional Weather Roundup
Issued by NWS Albany, NY

Home | Current Version | Previous Version | Text Only | Print | Product List | Glossary On
Versions: 1 2 3 4 5 6 7 8 9 10 11 12 13 14 15 16 17 18 19 20 21 22 23 24 25 26 27
000
ASUS41 KALY 230510
RWRALY

NEW YORK STATE HOURLY WEATHER ROUNDUP
NATIONAL WEATHER SERVICE ALBANY NY
100 AM EDT TUE AUG 23 2016

NOTE: "FAIR" INDICATES FEW OR NO CLOUDS BELOW 12,000 FEET WITH NO
SIGNIFICANT WEATHER AND/OR NO OBSTRUCTIONS TO VISIBILITY.

NYZ032-033-038>043-046>054-057>066-NYZ062>081-082-084-230600-
EAST


CITY           SKY/WX    TMP DP  RH WIND       PRES   REMARKS
ALBANY         CLEAR     56  48  74 NW6       30.22R
GLENS FALLS    CLEAR     51  49  92 CALM      30.20R
POUGHKEEPSIE   CLEAR    N/A N/A N/A MISG      30.21S
NEWBURGH       CLEAR     55  52  88 W7        30.24R
MONTGOMERY     CLEAR     53  51  93 SW3       30.23R
WHITE PLAINS   CLEAR     58  49  72 N5        30.22R
ISLIP          CLEAR     63  51  65 NW3       30.21S
NEW YORK CITY  CLEAR     70  48  45 N8        30.22R
CENTRAL PARK   CLEAR     65  49  56 CALM      30.25R
$$

NYZ005>009-017-018-044>046-055-056-230600-
CENTRAL


CITY           SKY/WX    TMP DP  RH WIND       PRES   REMARKS
FULTON         CLEAR     53  51  93 CALM      30.21R
SYRACUSE       CLEAR     58  52  80 SE3       30.20S
ROME           CLEAR     51  51 100 SE5       30.24R
ELMIRA         CLEAR     53  50  89 CALM      30.25R
BINGHAMTON     CLEAR     57  49  74 W3        30.25S
MONTICELLO     CLEAR     50  48  93 CALM      30.26S
$$

NYZ026>034-041>043-087-230600-
NORTH


CITY           SKY/WX    TMP DP  RH WIND       PRES   REMARKS
WATERTOWN      CLEAR     52  50  93 CALM      30.19R
FORT DRUM      NOT AVBL
MASSENA        CLEAR     54  50  86 SW7       30.18R
SARANAC LAKE   CLEAR     50  48  93 SW8       30.20R
PLATTSBURGH    CLEAR     59  51  75 VRB3      30.16R
$$

NYZ001>004-010>016-019>021-085-230600-
WEST


CITY           SKY/WX    TMP DP  RH WIND       PRES   REMARKS
NIAGARA FALLS  CLEAR     61  51  70 CALM      30.22R
BUFFALO        CLEAR     64  50  60 SW3       30.22R
DUNKIRK        CLEAR     61  55  81 SW5       30.23S
JAMESTOWN      CLEAR     54  48  82 S3        30.27R
WELLSVILLE     PTCLDY    53  49  86 CALM      30.29R
ROCHESTER      CLEAR     59  55  87 CALM      30.22S
PENN YAN       CLEAR     60  55  83 SW3       30.24S
$$

             KEY
       WCI = WIND CHILL INDEX
       VSB = VISIBILITY
       HX  = HEAT INDEX
$$




USA.gov is the U.S. government's official web portal to all federal, state and local government web resources and services.